STARLINK-32408, 62054

Orbit data source: Space-Track

STARLINK-32408, 62054 is a payload satellite owned by SpaceX/Seattle (US) in LEO that was launched on Thu, 21 Nov 2024 UTC via an FALCON 9 launch vehicle from the Air Force Eastern Test Range (AFETR). Payload-class satellites include a variety of spacecraft equipped with specific instruments for various scientific and technological missions. These include communications satellites like Starlink; space stations such as the ISS; scientific satellites like the Hubble; Earth observation satellites from companies like Planet Labs, Umbra, and HawkEye 360; GPS; miniature CubeSats for education and research; and military/defense satellites.

Loading next visibility...
Identifier
62054, 2024-216Y
Orbit
LEO
Last TLE update
16 hours ago
Origin
Manufacturer
SpaceX/Seattle
Mission
Operational Commercial Communications
Bus & Motor
STARLINK V2M, Unknown motor
Mass
730 kg wet, ~700 kg dry
Launch date (UTC)
2024-11-21 (6 months ago)
Launch vehicle
FALCON 9
Launch site
Air Force Eastern Test Range (AFETR)
Object type
Payload
Rocket body
Debris
Shape & HBR
Box + 2 Pan, 29 m
Radar Cross Section
36.964 m², Large (>1 m²)

Expand to show TLE details & history

TLE from 16 hours ago
0 STARLINK-32408
1 62054U 24216Y   25128.58811968 -.00000956  00000-0 -15641-4 0  9999
2 62054  43.0002 185.4943 0001042 256.5936 103.4805 15.40699761 25988
Epoch: 2025-05-08T14:06Z
Definitive object data (Epoch: 2025-05-08T14:06:53.54Z)
Latitude
0.00003°
Longitude
107.11478°
Altitude
443.983 km
Speed
7.647 km/s
True Right ascension
12h 21m 58s
True Declination
0° 00' 00"
Sunlit
Object was in full shadow at TLE epoch
Visualization TLE readout
Latitude
-1.4501°
Longitude
101.83336°
Altitude
444.107 km
Speed
7.647 km/s
Apparent Right ascension
09h 12m 18s
Apparent Declination
-52° 03' 35"
Sunlit
Object is in full shadow
Visualization observer readout
Local Sidereal Time
13:48:34
Azimuth
217.595° SW
Elevation
-19.729°
Doppler factor
1
Orbital elements
Apogee altitude
446.71 km
Perigee altitude
445.288 km
Semi-major axis
6,824.136 km
Eccentricity
0.0001042
Inclination
43.0002°
RAAN
185.4943°
Arg. of periapsis
256.5936°
True anomaly
103.49211°
Mean anomaly
103.4805°
Eccentric anomaly
103.48631°
Mean motion
3.8501 °/min
BSTAR
-0.000015641
Orbital period
93.5 mins
Loading maneuver chart data...
Loading SW <> Apogee altitude chart data...
Loading historical data...
Loading historical data...
Loading historical data...
Loading historical data...
Loading historical data...
Loading historical data...
Loading historical data...

STARLINK-32408 Visibility forecast

Observer location: undefined°, undefined°

Span
Click to sort rows by Start time (UTC) header in descending order
Start Az.
Max El. time (UTC)
Max El. Az.
Max El.
End time (UTC)
End Az.
5 mins2025-05-09 07:27:52.516Z225.628° WSW2025-05-09 07:29:52.516Z168.112° S38.334°2025-05-09 07:32:52.516Z79.895° E
5 mins2025-05-09 09:05:52.516Z278.175° WNW2025-05-09 09:07:52.516Z330.237° NNW38.71°2025-05-09 09:10:52.516Z68.077° E
5 mins2025-05-09 10:44:52.516Z300.848° NW2025-05-09 10:46:52.516Z41.67° NE38.669°2025-05-09 10:49:52.516Z89.799° E
5 mins2025-05-09 12:22:52.516Z267.551° W2025-05-09 12:24:52.516Z186.152° SSW35.384°2025-05-09 12:27:52.516Z131.953° SE
|